[[{"header":{"parameterUnit":"m.s-1","parameterCategory":1,"la1":30.2991,"la2":30.254,"lo1":-89.0895,"lo2":-89.0444,"dy":0.0017,"dx":0.0017,"nx":28,"ny":28,"refTime":"2024-07-11T21:00:00:Z","depth":0,"parameterNumber":2,"parameterNumberName":"U-component_of_WINDS"},"data":[0,0,0,0,0,0,0,0,0,0,0,0,0,0,0,0,0,0,0,0,0,0,0,0,0,0,0,0,0,0,0,0,0,0,0,0,0,0,0,0,0,0,0,0,0,0,0,0,0,0,0,0,0,0,0,0,0,0,0.0764,0.0765,0,0.0929,0.0931,0.0933,0.097,0.0969,0.0968,0.0967,0.1143,0.1148,0.1154,0,0,0,0,0,0,0,0,0,0,0,0,0,0.0485,0.049,0.0763,0.0766,0.0768,0.0929,0.0931,0.0933,0.0971,0.0969,0.0968,0.0966,0.1141,0.1148,0.1155,0,0,0,0,0,0,0,0,0,0,0,0,0,0.0624,0.0491,0.0763,0.0805,0.0811,0.0928,0.0931,0.0934,0.0971,0.0969,0.0967,0.0966,0.1139,0.1147,0.1156,0.1245,0,0,0.1182,0.1186,0,0,0,0,0,0,0,0,0.0616,0.0634,0.0797,0.0803,0.0809,0.0927,0.0897,0.1038,0.0971,0.091,0.0967,0.0965,0.1073,0.1087,0.1122,0.1253,0.126,0.1183,0.1188,0.1192,0.1194,0,0,0,0,0,0,0,0.0606,0.0627,0.0829,0.0799,0.0807,0.0818,0.0836,0.0924,0.1,0.0915,0.0919,0.0937,0.1076,0.1114,0.1126,0.1263,0.1183,0.119,0.1196,0.1199,0.1474,0.1476,0,0,0,0,0,0,0.0588,0.0619,0.0824,0.0834,0.0706,0.0824,0.0844,0.0891,0.0999,0.1013,0.0939,0.0938,0.11,0.1116,0.1133,0.1243,0.1192,0.12,0.1205,0.1472,0.1475,0.1477,0,0,0,0,0,0,0.0582,0.0606,0.0817,0.0727,0.0755,0.0831,0.0883,0.0895,0.0933,0.1016,0.103,0.0963,0.1099,0.1121,0.1216,0.125,0.1204,0.1212,0.147,0.1473,0.1476,0.1465,0,0,0,0,0,0,0.0574,0.0604,0.0637,0.0728,0.076,0.0896,0.0885,0.09,0.0947,0.0948,0.1043,0.1057,0.1099,0.1203,0.1224,0.1261,0.1219,0.1467,0.1471,0.1475,0.1462,0.1467,0.1471,0,0,0,0,0,0.0564,0.0629,0.0639,0.0663,0.0803,0.0898,0.0916,0.0962,0.095,0.0985,0.1038,0.1054,0.1242,0.1212,0.1237,0.1276,0.1465,0.147,0.1474,0.1461,0.1466,0.1471,0,0,0,0,0,0,0.0544,0.0642,0.0654,0.075,0.0815,0.0904,0.0949,0.0967,0.1038,0.1037,0.1092,0.1113,0.1205,0.1251,0.1215,0.1368,0.1353,0.1363,0.1334,0.1341,0.1345,0.1332,0.1226,0,0,0,0,0,0.055,0.0617,0.07,0.0777,0.0809,0.0873,0.0917,0.0946,0.1016,0.1045,0.1105,0.1174,0.1249,0.1298,0.1371,0.1469,0.149,0.1509,0.1513,0.1516,0.1524,0.1578,0.1587,0.1492,0.1492,0.1492,0,0,0.0565,0.0627,0.0666,0.0775,0.0828,0.0898,0.0896,0.0971,0.1023,0.1057,0.1149,0.1196,0.1277,0.1373,0.1419,0.1415,0.1555,0.1522,0.1524,0.1531,0.1584,0.1593,0.1601,0.1496,0.1495,0.1494,0,0,0.0626,0.068,0.0749,0.0802,0.0883,0.0925,0.0941,0.1028,0.1059,0.1152,0.1178,0.1243,0.1371,0.1427,0.1472,0.1553,0.157,0.1576,0.1599,0.1651,0.1659,0.1665,0.1694,0.1703,0.1584,0.1584,0.1584,0,0.0635,0.0739,0.0783,0.0855,0.0902,0.0933,0.1004,0.1055,0.1156,0.1188,0.1181,0.134,0.1398,0.1507,0.1526,0.1562,0.1583,0.1565,0.1653,0.1661,0.1668,0.1696,0.1706,0.1584,0.1584,0.1584,0.1584,0,0.0745,0.0817,0.0864,0.0957,0.101,0.1081,0.1138,0.1186,0.121,0.1253,0.1347,0.1416,0.1504,0.1532,0.1558,0.1645,0.1639,0.1642,0.1629,0.1676,0.1703,0.1714,0.1584,0.1584,0.1584,0.1584,0,0,0.08,0.0916,0.0932,0.0974,0.1064,0.1122,0.1195,0.1277,0.1317,0.1386,0.1449,0.1555,0.1557,0.1609,0.1641,0.1687,0.1745,0.1684,0.1687,0.1693,0.1845,0.1842,0.1854,0.1757,0.1759,0.1761,0.1838,0,0.0872,0.1001,0.1042,0.115,0.1217,0.1246,0.131,0.1373,0.1415,0.1479,0.1526,0.16,0.1598,0.1629,0.1676,0.1728,0.1777,0.1723,0.1817,0.182,0.1795,0.1868,0.1866,0.1935,0.1849,0.1851,0.1852,0,0.0975,0.1041,0.1155,0.1235,0.1265,0.1321,0.1399,0.146,0.1532,0.1559,0.1615,0.1643,0.1721,0.1703,0.1812,0.1774,0.1815,0.1846,0.185,0.1861,0.1839,0.188,0.1958,0.1968,0.1869,0.1868,0.1867,0,0.1002,0.1121,0.1204,0.1239,0.1335,0.1374,0.1416,0.1486,0.1532,0.1602,0.1633,0.1711,0.1754,0.1815,0.1863,0.1846,0.1968,0.1954,0.1993,0.1992,0.2018,0.2016,0.2103,0.2044,0.2044,0.2044,0.2044,0,0.1078,0.1147,0.1217,0.1268,0.1346,0.1393,0.1469,0.1513,0.1575,0.1636,0.1667,0.1724,0.1784,0.185,0.1889,0.1972,0.1992,0.2017,0.2026,0.2014,0.201,0.2041,0.2038,0.2047,0.2046,0.2046,0.2045,0,0.1122,0.1172,0.1264,0.1347,0.1369,0.1422,0.1493,0.1545,0.1587,0.1664,0.1684,0.1752,0.183,0.1884,0.1986,0.2012,0.2102,0.2111,0.2076,0.2081,0.2117,0.2113,0.2228,0.2245,0.2175,0.2175,0.2176,0,0.1168,0.122,0.1307,0.1349,0.139,0.1458,0.1504,0.1553,0.1601,0.1686,0.1727,0.1807,0.1873,0.1996,0.2056,0.2133,0.2144,0.2179,0.2156,0.2141,0.2144,0.214,0.2145,0.2182,0.2183,0.2183,0.2184,0,0.1242,0.1264,0.1329,0.1403,0.1457,0.1518,0.158,0.1613,0.1673,0.1725,0.1804,0.1855,0.1956,0.2035,0.2118,0.2163,0.2184,0.219,0.2203,0.2191,0.2168,0.218,0.2085,0.2187,0.2187,0.2187,0.2187,0.2186,0.1288,0.1336,0.1403,0.1475,0.1526,0.1582,0.1633,0.1681,0.1747,0.1832,0.1857,0.1939,0.2009,0.2121,0.2168,0.2233,0.2231,0.225,0.2255,0.2259,0.2258,0.2158,0.2249,0.2249,0.2248,0.2248,0.2248,0,0.1364,0.1408,0.1473,0.1557,0.1613,0.1625,0.1693,0.174,0.1811,0.1873,0.1937,0.2027,0.2103,0.2167,0.2246,0.2286,0.2297,0.2305,0.2303,0.2313,0.2256,0.2236,0.2294,0.2294,0.2294,0.2294,0.2294,0.2294,0.141,0.149,0.152,0.1626,0.1671,0.1749,0.1787,0.1839,0.1889,0.1987,0.2049,0.209,0.2153,0.2237,0.2307,0.2324,0.2352,0.2357,0.2376,0.2322,0.2317,0.2312,0.2293,0.2363,0.2363,0.2427,0.2428,0.2428]},{"header":{"parameterUnit":"m.s-1","parameterCategory":1,"la1":30.2991,"la2":30.254,"lo1":-89.0895,"lo2":-89.0444,"dy":0.0017,"dx":0.0017,"nx":28,"ny":28,"refTime":"2024-07-11T21:00:00:Z","depth":0,"parameterNumber":3,"parameterNumberName":"V-component_of_WINDS"},"data":[0,0,0,0,0,0,0,0,0,0,0,0,0,0,0,0,0,0,0,0,0,0,0,0,0,0,0,0,0,0,0,0,0,0,0,0,0,0,0,0,0,0,0,0,0,0,0,0,0,0,0,0,0,0,0,0,0,0,1.9566,1.9565,0,1.9472,1.9471,1.947,1.9442,1.9442,1.9443,1.9443,1.9341,1.9338,1.9335,0,0,0,0,0,0,0,0,0,0,0,0,0,1.9714,1.9712,1.9566,1.9564,1.9563,1.9472,1.9471,1.9469,1.9442,1.9442,1.9443,1.9443,1.9342,1.9339,1.9335,0,0,0,0,0,0,0,0,0,0,0,0,0,1.9638,1.9711,1.9566,1.9539,1.9535,1.9472,1.9471,1.9469,1.9441,1.9442,1.9443,1.9444,1.9344,1.9339,1.9334,1.929,0,0,1.932,1.9318,0,0,0,0,0,0,0,0,1.9642,1.9633,1.9544,1.954,1.9536,1.9469,1.9486,1.9409,1.9441,1.9477,1.9443,1.9444,1.9383,1.9375,1.9356,1.9285,1.9281,1.9319,1.9316,1.9314,1.9313,0,0,0,0,0,0,0,1.9648,1.9636,1.9528,1.9542,1.9538,1.9529,1.9519,1.9471,1.9427,1.9474,1.9472,1.9461,1.9381,1.936,1.9353,1.9279,1.9319,1.9315,1.9312,1.931,1.9166,1.9165,0,0,0,0,0,0,1.9659,1.9641,1.9531,1.9526,1.9593,1.9526,1.9514,1.949,1.9427,1.9418,1.9461,1.946,1.9368,1.9359,1.9349,1.9292,1.9314,1.931,1.9307,1.9167,1.9165,1.9164,0,0,0,0,0,0,1.9662,1.9649,1.9535,1.9583,1.9568,1.9522,1.9495,1.9488,1.9467,1.9417,1.9409,1.9448,1.9368,1.9356,1.9305,1.9288,1.9308,1.9303,1.9168,1.9166,1.9165,1.9177,0,0,0,0,0,0,1.9666,1.965,1.9635,1.9583,1.9565,1.9494,1.9494,1.9485,1.946,1.9458,1.9403,1.9395,1.9368,1.9312,1.93,1.9282,1.93,1.9169,1.9167,1.9165,1.9178,1.9177,1.9175,0,0,0,0,0,1.9672,1.9641,1.9634,1.9621,1.9545,1.9493,1.9483,1.9455,1.9458,1.9441,1.9409,1.9396,1.9292,1.9307,1.9293,1.9273,1.917,1.9168,1.9165,1.9179,1.9177,1.9175,0,0,0,0,0,0,1.969,1.9634,1.9625,1.9577,1.9541,1.9489,1.9466,1.9454,1.9413,1.9413,1.9378,1.9366,1.9317,1.929,1.9308,1.9226,1.923,1.9225,1.9245,1.9243,1.9241,1.9248,1.9296,0,0,0,0,0,1.9689,1.9654,1.9606,1.9568,1.955,1.9511,1.9488,1.9469,1.9429,1.9413,1.9377,1.9336,1.9294,1.9267,1.9226,1.9175,1.9161,1.9154,1.9152,1.9151,1.9147,1.9116,1.9111,1.9157,1.9157,1.9157,0,0,1.9686,1.965,1.963,1.9571,1.954,1.9502,1.9498,1.9459,1.943,1.9406,1.9356,1.9328,1.928,1.9229,1.9204,1.9205,1.9131,1.9148,1.9148,1.9144,1.9113,1.9109,1.9105,1.9156,1.9156,1.9156,0,0,1.966,1.9631,1.9595,1.9565,1.9519,1.9494,1.9485,1.9435,1.9416,1.9366,1.9347,1.9311,1.924,1.9206,1.918,1.9141,1.9127,1.9128,1.9119,1.909,1.9086,1.9083,1.9067,1.9062,1.9124,1.9124,1.9124,0,1.9661,1.9605,1.9578,1.954,1.9513,1.9492,1.9454,1.9426,1.9368,1.9349,1.9351,1.9261,1.9228,1.9167,1.9158,1.9138,1.9125,1.9134,1.9089,1.9085,1.9082,1.9066,1.9061,1.9125,1.9125,1.9125,1.9125,0,1.9608,1.9569,1.9546,1.9493,1.9464,1.9426,1.9391,1.9364,1.9348,1.9322,1.9269,1.9229,1.9178,1.9163,1.9146,1.9099,1.9101,1.9097,1.91,1.9078,1.9063,1.9057,1.9125,1.9125,1.9125,1.9125,0,0,1.959,1.9523,1.9514,1.9489,1.9437,1.9406,1.9366,1.9319,1.9296,1.9257,1.9221,1.9161,1.9157,1.9127,1.9106,1.908,1.905,1.9079,1.9077,1.9073,1.8993,1.8996,1.899,1.9041,1.904,1.9039,1.8997,0,1.9557,1.9487,1.9461,1.9403,1.9366,1.9345,1.931,1.9273,1.9248,1.9211,1.9181,1.9139,1.9138,1.9119,1.9093,1.906,1.9033,1.9062,1.9005,1.9004,1.9016,1.8982,1.8984,1.8946,1.8991,1.899,1.8989,0,1.9508,1.947,1.9409,1.9361,1.9344,1.9313,1.9267,1.9233,1.919,1.9172,1.9139,1.912,1.9075,1.9083,1.902,1.904,1.9015,1.8995,1.8993,1.8985,1.8994,1.8971,1.8934,1.8928,1.898,1.8981,1.8981,0,1.9499,1.9433,1.9387,1.9367,1.931,1.9288,1.9263,1.9221,1.9193,1.9152,1.9134,1.9087,1.9061,1.9025,1.8993,1.9002,1.8932,1.8937,1.8914,1.8915,1.8899,1.89,1.8855,1.8886,1.8886,1.8886,1.8886,0,1.9464,1.9427,1.9383,1.9354,1.9312,1.9281,1.9239,1.9212,1.9175,1.9139,1.9118,1.9085,1.9045,1.9006,1.8981,1.8931,1.892,1.8903,1.8896,1.8904,1.8906,1.8886,1.8887,1.8885,1.8885,1.8885,1.8886,0,1.9446,1.9416,1.9364,1.9315,1.9301,1.9272,1.9228,1.9199,1.9172,1.9127,1.9115,1.9072,1.9025,1.899,1.8929,1.8912,1.8858,1.8852,1.8873,1.8869,1.8848,1.885,1.8787,1.8776,1.8816,1.8816,1.8816,0,1.9425,1.9396,1.9344,1.9319,1.9295,1.9256,1.9228,1.9197,1.9168,1.9117,1.9093,1.9045,1.9004,1.893,1.8892,1.8844,1.8836,1.8817,1.8828,1.8836,1.8833,1.8835,1.883,1.8815,1.8815,1.8814,1.8814,0,1.9389,1.9375,1.9338,1.9294,1.9262,1.9225,1.9188,1.9169,1.9131,1.9099,1.9052,1.9021,1.8959,1.891,1.8859,1.883,1.8815,1.8811,1.8803,1.881,1.8823,1.8813,1.8867,1.8813,1.8813,1.8813,1.8813,1.8813,1.9368,1.9341,1.93,1.9257,1.9227,1.9193,1.9162,1.9132,1.9093,1.9041,1.9025,1.8975,1.8931,1.886,1.8831,1.879,1.879,1.8779,1.8776,1.8773,1.8773,1.8831,1.8781,1.8781,1.8781,1.8781,1.8781,0,1.9329,1.9302,1.9264,1.9214,1.918,1.9171,1.9129,1.9101,1.9058,1.9019,1.8981,1.8925,1.8878,1.8836,1.8787,1.8762,1.8753,1.875,1.875,1.8743,1.8776,1.8788,1.8757,1.8757,1.8757,1.8757,1.8757,1.8757,1.9306,1.9259,1.924,1.9177,1.9149,1.9102,1.9079,1.9046,1.9015,1.8955,1.8916,1.889,1.8849,1.8797,1.8752,1.8741,1.8723,1.872,1.8707,1.8739,1.8741,1.8744,1.8754,1.8717,1.8717,1.8677,1.8677,1.8677]}]]